Time,TemperatureF,DewpointF,PressureIn,WindDirection,WindDirectionDegrees,WindSpeedMPH,WindSpeedGustMPH,Humidity,HourlyPrecipIn,Conditions,Clouds,dailyrainin,SolarRadiationWatts/m^2,SoftwareType,DateUTC
2013-02-12 00:01:00,48.0,18.0,-100.00,North,-999,-999.0,-999.0,30,0.00,,,0.06,0.000000,,2013-02-12 05:01:00,
2013-02-12 00:10:00,48.0,16.0,-100.00,North,-999,-999.0,-999.0,28,0.00,,,0.06,0.000000,,2013-02-12 05:10:00,
2013-02-12 00:42:00,48.0,16.0,-100.00,North,-999,-999.0,-999.0,28,0.00,,,0.06,0.000000,,2013-02-12 05:42:00,
2013-02-12 00:52:00,48.0,16.0,-100.00,North,-999,-999.0,-999.0,28,0.00,,,0.06,0.000000,,2013-02-12 05:52:00,
2013-02-12 01:02:00,48.0,16.0,-100.00,North,-999,-999.0,-999.0,28,0.00,,,0.06,0.000000,,2013-02-12 06:02:00,
2013-02-12 01:32:00,48.0,15.0,-100.00,North,-999,-999.0,-999.0,26,0.00,,,0.06,0.000000,,2013-02-12 06:32:00,
2013-02-12 02:10:00,46.0,15.0,-100.00,North,-999,-999.0,-999.0,28,0.00,,,0.05,0.000000,,2013-02-12 07:10:00,
2013-02-12 02:42:00,46.0,15.0,-100.00,North,-999,-999.0,-999.0,28,0.00,,,0.05,0.000000,,2013-02-12 07:42:00,
2013-02-12 02:52:00,46.0,15.0,-100.00,North,-999,-999.0,-999.0,28,0.00,,,0.05,0.000000,,2013-02-12 07:52:00,
2013-02-12 03:01:00,46.0,15.0,-100.00,North,-999,-999.0,-999.0,28,0.00,,,0.05,0.000000,,2013-02-12 08:01:00,
2013-02-12 03:10:00,42.0,14.0,-100.00,North,-999,-999.0,-999.0,32,0.00,,,0.05,0.000000,,2013-02-12 08:10:00,
2013-02-12 03:42:00,42.0,14.0,-100.00,North,-999,-999.0,-999.0,32,0.00,,,0.05,0.000000,,2013-02-12 08:42:00,
2013-02-12 03:52:00,42.0,14.0,-100.00,North,-999,-999.0,-999.0,32,0.00,,,0.05,0.000000,,2013-02-12 08:52:00,
2013-02-12 04:02:00,42.0,14.0,-100.00,North,-999,-999.0,-999.0,32,0.00,,,0.05,0.000000,,2013-02-12 09:02:00,
2013-02-12 04:10:00,39.0,19.0,-100.00,North,-999,-999.0,-999.0,44,0.00,,,0.03,0.000000,,2013-02-12 09:10:00,
2013-02-12 04:32:00,39.0,19.0,-100.00,North,-999,-999.0,-999.0,44,0.00,,,0.03,0.000000,,2013-02-12 09:32:00,
2013-02-12 04:42:00,39.0,19.0,-100.00,North,-999,-999.0,-999.0,44,0.00,,,0.03,0.000000,,2013-02-12 09:42:00,
2013-02-12 04:52:00,39.0,19.0,-100.00,North,-999,-999.0,-999.0,44,0.00,,,0.03,0.000000,,2013-02-12 09:52:00,
2013-02-12 05:02:00,39.0,19.0,-100.00,North,-999,-999.0,-999.0,44,0.00,,,0.03,0.000000,,2013-02-12 10:02:00,
2013-02-12 05:10:00,40.0,16.0,-100.00,North,-999,-999.0,-999.0,38,0.00,,,0.03,0.000000,,2013-02-12 10:10:00,
2013-02-12 05:43:00,40.0,16.0,-100.00,North,-999,-999.0,-999.0,38,0.00,,,0.03,0.000000,,2013-02-12 10:43:00,
2013-02-12 05:52:00,40.0,16.0,-100.00,North,-999,-999.0,-999.0,38,0.00,,,0.03,0.000000,,2013-02-12 10:52:00,
2013-02-12 06:02:00,40.0,16.0,-100.00,North,-999,-999.0,-999.0,38,0.00,,,0.03,0.000000,,2013-02-12 11:02:00,
2013-02-12 06:10:00,39.0,17.0,-100.00,North,-999,-999.0,-999.0,40,0.00,,,0.02,0.000000,,2013-02-12 11:10:00,
2013-02-12 06:32:00,39.0,17.0,-100.00,North,-999,-999.0,-999.0,40,0.00,,,0.02,0.000000,,2013-02-12 11:32:00,
2013-02-12 06:42:00,39.0,17.0,-100.00,North,-999,-999.0,-999.0,40,0.00,,,0.02,0.000000,,2013-02-12 11:42:00,
2013-02-12 06:53:00,39.0,17.0,-100.00,North,-999,-999.0,-999.0,40,0.00,,,0.02,0.000000,,2013-02-12 11:53:00,
2013-02-12 07:02:00,39.0,17.0,-100.00,North,-999,-999.0,-999.0,40,0.00,,,0.02,0.000000,,2013-02-12 12:02:00,
2013-02-12 07:10:00,40.0,20.0,-100.00,North,-999,-999.0,-999.0,44,0.00,,,0.00,0.000000,,2013-02-12 12:10:00,
2013-02-12 07:32:00,40.0,20.0,-100.00,North,-999,-999.0,-999.0,44,0.00,,,0.00,0.000000,,2013-02-12 12:32:00,
2013-02-12 07:42:00,40.0,20.0,-100.00,North,-999,-999.0,-999.0,44,0.00,,,0.00,0.000000,,2013-02-12 12:42:00,
2013-02-12 07:53:00,40.0,20.0,-100.00,North,-999,-999.0,-999.0,44,0.00,,,0.00,0.000000,,2013-02-12 12:53:00,
2013-02-12 08:02:00,40.0,20.0,-100.00,North,-999,-999.0,-999.0,44,0.00,,,0.00,0.000000,,2013-02-12 13:02:00,
2013-02-12 08:10:00,40.0,19.0,-100.00,North,-999,-999.0,-999.0,43,0.00,,,0.00,0.000000,,2013-02-12 13:10:00,
2013-02-12 08:32:00,40.0,19.0,-100.00,North,-999,-999.0,-999.0,43,0.00,,,0.00,0.000000,,2013-02-12 13:32:00,
2013-02-12 08:42:00,40.0,19.0,-100.00,North,-999,-999.0,-999.0,43,0.00,,,0.00,0.000000,,2013-02-12 13:42:00,
2013-02-12 08:52:00,40.0,19.0,-100.00,North,-999,-999.0,-999.0,43,0.00,,,0.00,0.000000,,2013-02-12 13:52:00,
2013-02-12 09:01:00,40.0,19.0,-100.00,North,-999,-999.0,-999.0,43,0.00,,,0.00,0.000000,,2013-02-12 14:01:00,
2013-02-12 09:10:00,45.0,20.0,-100.00,North,-999,-999.0,-999.0,37,0.00,,,0.00,0.000000,,2013-02-12 14:10:00,
2013-02-12 09:42:00,45.0,20.0,-100.00,North,-999,-999.0,-999.0,37,0.00,,,0.00,0.000000,,2013-02-12 14:42:00,
2013-02-12 09:52:00,45.0,20.0,-100.00,North,-999,-999.0,-999.0,37,0.00,,,0.00,0.000000,,2013-02-12 14:52:00,
2013-02-12 10:02:00,45.0,20.0,-100.00,North,-999,-999.0,-999.0,37,0.00,,,0.00,0.000000,,2013-02-12 15:02:00,
2013-02-12 10:10:00,50.0,17.0,-100.00,North,-999,-999.0,-999.0,27,0.00,,,0.00,0.000000,,2013-02-12 15:10:00,
2013-02-12 10:32:00,50.0,17.0,-100.00,North,-999,-999.0,-999.0,27,0.00,,,0.00,0.000000,,2013-02-12 15:32:00,
2013-02-12 11:10:00,52.0,18.0,-100.00,North,-999,-999.0,-999.0,26,0.00,,,0.00,0.000000,,2013-02-12 16:10:00,
2013-02-12 11:32:00,52.0,18.0,-100.00,North,-999,-999.0,-999.0,26,0.00,,,0.00,0.000000,,2013-02-12 16:32:00,
2013-02-12 11:42:00,52.0,18.0,-100.00,North,-999,-999.0,-999.0,26,0.00,,,0.00,0.000000,,2013-02-12 16:42:00,
2013-02-12 11:52:00,52.0,18.0,-100.00,North,-999,-999.0,-999.0,26,0.00,,,0.00,0.000000,,2013-02-12 16:52:00,
2013-02-12 12:01:00,52.0,18.0,-100.00,North,-999,-999.0,-999.0,26,0.00,,,0.00,0.000000,,2013-02-12 17:01:00,
2013-02-12 12:10:00,57.0,15.0,-100.00,North,-999,-999.0,-999.0,19,0.00,,,0.00,0.000000,,2013-02-12 17:10:00,
2013-02-12 12:42:00,57.0,15.0,-100.00,North,-999,-999.0,-999.0,19,0.00,,,0.00,0.000000,,2013-02-12 17:42:00,
2013-02-12 12:52:00,57.0,15.0,-100.00,North,-999,-999.0,-999.0,19,0.00,,,0.00,0.000000,,2013-02-12 17:52:00,
2013-02-12 14:10:00,56.0,19.0,-100.00,North,-999,-999.0,-999.0,23,-99.99,,,-99.99,0.000000,,2013-02-12 19:10:00,
2013-02-12 14:42:00,56.0,19.0,-100.00,North,-999,-999.0,-999.0,23,-99.99,,,-99.99,0.000000,,2013-02-12 19:42:00,
2013-02-12 14:52:00,56.0,19.0,-100.00,North,-999,-999.0,-999.0,23,-99.99,,,-99.99,0.000000,,2013-02-12 19:52:00,
2013-02-12 15:01:00,56.0,19.0,-100.00,North,-999,-999.0,-999.0,23,-99.99,,,-99.99,0.000000,,2013-02-12 20:01:00,
2013-02-12 16:10:00,52.0,22.0,-100.00,North,-999,-999.0,-999.0,30,-99.99,,,0.00,0.000000,,2013-02-12 21:10:00,
2013-02-12 16:42:00,52.0,22.0,-100.00,North,-999,-999.0,-999.0,30,-99.99,,,0.00,0.000000,,2013-02-12 21:42:00,
2013-02-12 16:52:00,52.0,22.0,-100.00,North,-999,-999.0,-999.0,30,-99.99,,,0.00,0.000000,,2013-02-12 21:52:00,
2013-02-12 17:01:00,52.0,22.0,-100.00,North,-999,-999.0,-999.0,30,-99.99,,,0.00,0.000000,,2013-02-12 22:01:00,
2013-02-12 17:10:00,50.0,22.0,-100.00,North,-999,-999.0,-999.0,33,0.00,,,0.00,0.000000,,2013-02-12 22:10:00,
2013-02-12 17:32:00,50.0,22.0,-100.00,North,-999,-999.0,-999.0,33,0.00,,,0.00,0.000000,,2013-02-12 22:32:00,
2013-02-12 17:42:00,50.0,22.0,-100.00,North,-999,-999.0,-999.0,33,0.00,,,0.00,0.000000,,2013-02-12 22:42:00,
2013-02-12 17:52:00,50.0,22.0,-100.00,North,-999,-999.0,-999.0,33,0.00,,,0.00,0.000000,,2013-02-12 22:52:00,
2013-02-12 18:02:00,50.0,22.0,-100.00,North,-999,-999.0,-999.0,33,0.00,,,0.00,0.000000,,2013-02-12 23:02:00,
2013-02-12 18:10:00,49.0,20.0,-100.00,North,-999,-999.0,-999.0,31,0.00,,,0.00,0.000000,,2013-02-12 23:10:00,
2013-02-12 18:32:00,49.0,20.0,-100.00,North,-999,-999.0,-999.0,31,0.00,,,0.00,0.000000,,2013-02-12 23:32:00,
2013-02-12 18:42:00,49.0,20.0,-100.00,North,-999,-999.0,-999.0,31,0.00,,,0.00,0.000000,,2013-02-12 23:42:00,
2013-02-12 18:52:00,49.0,20.0,-100.00,North,-999,-999.0,-999.0,31,0.00,,,0.00,0.000000,,2013-02-12 23:52:00,
2013-02-12 19:02:00,49.0,20.0,-100.00,North,-999,-999.0,-999.0,31,0.00,,,0.00,0.000000,,2013-02-13 00:02:00,
2013-02-12 19:10:00,48.0,21.0,-100.00,North,-999,-999.0,-999.0,34,0.00,,,0.00,0.000000,,2013-02-13 00:10:00,
2013-02-12 19:42:00,48.0,21.0,-100.00,North,-999,-999.0,-999.0,34,0.00,,,0.00,0.000000,,2013-02-13 00:42:00,
2013-02-12 19:52:00,48.0,21.0,-100.00,North,-999,-999.0,-999.0,34,0.00,,,0.00,0.000000,,2013-02-13 00:52:00,
2013-02-12 20:01:00,48.0,21.0,-100.00,North,-999,-999.0,-999.0,34,0.00,,,0.00,0.000000,,2013-02-13 01:01:00,
2013-02-12 21:10:00,47.0,28.0,-100.00,North,-999,-999.0,-999.0,48,-99.99,,,0.00,0.000000,,2013-02-13 02:10:00,
2013-02-12 21:42:00,47.0,28.0,-100.00,North,-999,-999.0,-999.0,48,-99.99,,,0.00,0.000000,,2013-02-13 02:42:00,
2013-02-12 21:52:00,47.0,28.0,-100.00,North,-999,-999.0,-999.0,48,-99.99,,,0.00,0.000000,,2013-02-13 02:52:00,
2013-02-12 22:02:00,47.0,28.0,-100.00,North,-999,-999.0,-999.0,48,-99.99,,,0.00,0.000000,,2013-02-13 03:02:00,
2013-02-12 22:10:00,41.0,32.0,-100.00,North,-999,-999.0,-999.0,70,0.00,,,0.00,0.000000,,2013-02-13 03:10:00,
2013-02-12 22:32:00,41.0,32.0,-100.00,North,-999,-999.0,-999.0,70,0.00,,,0.00,0.000000,,2013-02-13 03:32:00,
2013-02-12 22:42:00,41.0,32.0,-100.00,North,-999,-999.0,-999.0,70,0.00,,,0.00,0.000000,,2013-02-13 03:42:00,
2013-02-12 22:52:00,41.0,32.0,-100.00,North,-999,-999.0,-999.0,70,0.00,,,0.00,0.000000,,2013-02-13 03:52:00,
2013-02-12 23:01:00,41.0,32.0,-100.00,North,-999,-999.0,-999.0,70,0.00,,,0.00,0.000000,,2013-02-13 04:01:00,
2013-02-12 23:10:00,39.0,37.0,-100.00,North,-999,-999.0,-999.0,92,0.02,,,0.02,0.000000,,2013-02-13 04:10:00,
2013-02-12 23:42:00,39.0,37.0,-100.00,North,-999,-999.0,-999.0,92,0.02,,,0.02,0.000000,,2013-02-13 04:42:00,
2013-02-12 23:52:00,39.0,37.0,-100.00,North,-999,-999.0,-999.0,92,0.02,,,0.02,0.000000,,2013-02-13 04:52:00,